OE3AOG Weather Reports


time (UTC)temp
C
wind
direction
speed
KPH
gust
KPH
rain 1hr
cm
rain 24hr
cm
rain mn
cm
humidity
%
barometer
mb
20260503021520 7 168 1.6 6.4 0.00 0.00 0.00 72 1016.9
20260503020520 7 142 3.2 6.4 0.00 0.00 0.00 72 1016.9
20260503015522 7 120 0.0 4.8 0.00 0.00 0.00 71 1017.0
20260503014529 7 104 3.2 4.8 0.00 0.00 0.00 72 1016.9
20260503013521 7 138 3.2 3.2 0.00 0.00 0.00 73 1017.1
20260503012537 7 74 3.2 4.8 0.00 0.00 0.00 72 1017.0
20260503011529 8 119 3.2 6.4 0.00 0.00 0.00 71 1017.2
20260503010521 8 115 3.2 4.8 0.00 0.00 0.00 71 1017.1
20260503005529 8 114 1.6 3.2 0.00 0.00 0.00 70 1017.2
20260503004520 8 111 1.6 3.2 0.00 0.00 0.00 69 1017.2
20260503003529 8 108 1.6 3.2 0.00 0.00 0.00 68 1017.1
20260503002521 8 140 3.2 4.8 0.00 0.00 0.00 68 1017.3
20260503001529 9 108 1.6 3.2 0.00 0.00 0.00 67 1017.3
20260503000521 9 120 1.6 3.2 0.00 0.00 0.00 67 1017.4
20260502235529 9 145 1.6 3.2 0.00 0.00 0.00 66 1017.5
20260502234521 10 142 0.0 3.2 0.00 0.00 0.00 65 1017.7
20260502233528 10 163 1.6 3.2 0.00 0.00 0.00 64 1017.8
20260502232521 10 179 1.6 4.8 0.00 0.00 0.00 64 1017.7
20260502231529 10 153 1.6 3.2 0.00 0.00 0.00 64 1017.8
20260502230521 10 124 0.0 3.2 0.00 0.00 0.00 63 1018.1
20260502225522 10 132 1.6 3.2 0.00 0.00 0.00 63 1018.1
20260502224529 10 119 1.6 6.4 0.00 0.00 0.00 63 1018.3
20260502223521 10 135 1.6 3.2 0.00 0.00 0.00 63 1018.3
20260502222537 10 126 1.6 3.2 0.00 0.00 0.00 65 1018.3
20260502221530 10 109 1.6 3.2 0.00 0.00 0.00 64 1018.3
20260502220522 10 107 1.6 3.2 0.00 0.00 0.00 63 1018.4
20260502215529 10 101 1.6 3.2 0.00 0.00 0.00 62 1018.4
20260502214521 11 121 1.6 3.2 0.00 0.00 0.00 61 1018.3
20260502213529 11 117 0.0 3.2 0.00 0.00 0.00 61 1018.4
20260502212521 11 125 1.6 3.2 0.00 0.00 0.00 61 1018.5
20260502211530 11 108 0.0 3.2 0.00 0.00 0.00 61 1018.5
20260502210521 11 123 1.6 3.2 0.00 0.00 0.00 60 1018.6
20260502205530 11 122 1.6 3.2 0.00 0.00 0.00 60 1018.7
20260502204522 12 111 0.0 1.6 0.00 0.00 0.00 58 1018.8
20260502203529 12 87 0.0 3.2 0.00 0.00 0.00 57 1018.9
20260502202521 12 130 0.0 3.2 0.00 0.00 0.00 56 1018.8
20260502201530 12 131 1.6 3.2 0.00 0.00 0.00 55 1018.9
20260502200521 13 129 1.6 3.2 0.00 0.00 0.00 54 1019.0
20260502195522 13 125 0.0 1.6 0.00 0.00 0.00 53 1019.0
20260502194530 13 104 1.6 3.2 0.00 0.00 0.00 52 1019.1
20260502193521 14 105 0.0 3.2 0.00 0.00 0.00 51 1019.2
20260502192529 15 138 1.6 3.2 0.00 0.00 0.00 51 1019.0
20260502191521 15 130 1.6 3.2 0.00 0.00 0.00 49 1019.0
20260502190529 15 127 0.0 3.2 0.00 0.00 0.00 47 1018.9
20260502185530 16 109 0.0 3.2 0.00 0.00 0.00 45 1019.0
20260502184522 17 135 0.0 3.2 0.00 0.00 0.00 43 1018.9
20260502183530 18 123 0.0 1.6 0.00 0.00 0.00 40 1018.7
20260502182522 18 139 0.0 3.2 0.00 0.00 0.00 37 1018.6
20260502181529 19 134 1.6 3.2 0.00 0.00 0.00 36 1018.6
20260502180521 20 120 3.2 4.8 0.00 0.00 0.00 35 1018.5
20260502163522 22 94 4.8 9.7 0.00 0.00 0.00 27 1018.6
20260502162530 22 60 1.6 8.0 0.00 0.00 0.00 27 1018.7
20260502161521 22 75 3.2 9.7 0.00 0.00 0.00 27 1018.8
20260502160542 22 71 3.2 11.3 0.00 0.00 0.00 27 1019.0
20260502151522 23 99 4.8 9.7 0.00 0.00 0.00 27 1019.5
20260502150530 23 78 4.8 8.0 0.00 0.00 0.00 28 1019.4
20260502130522 23 349 1.6 9.7 0.00 0.00 0.00 27 1020.8
20260502123530 23 76 4.8 14.5 0.00 0.00 0.00 27 1021.1
20260502122522 23 65 3.2 9.7 0.00 0.00 0.00 27 1021.2
20260502121530 22 107 6.4 11.3 0.00 0.00 0.00 27 1021.5
20260502120522 22 115 3.2 11.3 0.00 0.00 0.00 27 1021.5
20260502115530 22 71 3.2 9.7 0.00 0.00 0.00 27 1021.6
20260502114523 22 56 4.8 14.5 0.00 0.00 0.00 28 1021.8
20260502113530 22 83 6.4 14.5 0.00 0.00 0.00 27 1021.9
20260502112522 22 63 3.2 9.7 0.00 0.00 0.00 27 1022.0
20260502111530 22 91 4.8 12.9 0.00 0.00 0.00 29 1022.1
20260502110522 22 79 4.8 12.9 0.00 0.00 0.00 28 1022.2
20260502105530 22 96 4.8 11.3 0.00 0.00 0.00 28 1022.2
20260502104522 21 58 4.8 9.7 0.00 0.00 0.00 30 1022.4
20260502103530 22 86 6.4 14.5 0.00 0.00 0.00 30 1022.5
20260502102522 21 101 4.8 9.7 0.00 0.00 0.00 30 1022.7
20260502101530 21 57 4.8 14.5 0.00 0.00 0.00 31 1022.8
20260502100531 22 107 4.8 11.3 0.00 0.00 0.00 32 1022.9
20260502091530 21 67 4.8 9.7 0.00 0.00 0.00 36 1023.4
20260502090522 21 100 3.2 9.7 0.00 0.00 0.00 36 1023.4
20260502071522 19 76 3.2 9.7 0.00 0.00 0.00 42 1023.8
20260502070530 19 67 1.6 6.4 0.00 0.00 0.00 41 1023.9
20260502065531 19 67 1.6 6.4 0.00 0.00 0.00 41 1023.8
20260502064523 19 48 1.6 4.8 0.00 0.00 0.00 41 1023.9
20260502063531 18 75 1.6 3.2 0.00 0.00 0.00 42 1023.8
20260502062531 18 132 4.8 6.4 0.00 0.00 0.00 42 1023.8
20260502061523 17 98 3.2 4.8 0.00 0.00 0.00 42 1023.9
20260502060531 17 152 1.6 4.8 0.00 0.00 0.00 44 1023.8
20260502055523 16 132 1.6 4.8 0.00 0.00 0.00 46 1023.8
20260502054531 15 126 3.2 4.8 0.00 0.00 0.00 47 1023.8
20260502053523 14 162 1.6 4.8 0.00 0.00 0.00 51 1024.0
20260502052531 13 146 3.2 8.0 0.00 0.00 0.00 51 1023.9
20260502051523 13 135 3.2 6.4 0.00 0.00 0.00 51 1023.9
20260502050530 13 117 3.2 8.0 0.00 0.00 0.00 52 1023.9
20260502045531 11 129 4.8 6.4 0.00 0.00 0.00 58 1024.0
20260502044523 10 30 4.8 8.0 0.00 0.00 0.00 61 1023.9
20260502043531 9 10 3.2 6.4 0.00 0.00 0.00 64 1023.7
20260502042523 8 32 4.8 8.0 0.00 0.00 0.00 65 1023.7
20260502041530 9 3 4.8 9.7 0.00 0.00 0.00 64 1023.7
20260502040531 10 30 6.4 11.3 0.00 0.00 0.00 61 1023.7
20260502035532 10 56 6.4 9.7 0.00 0.00 0.00 61 1023.7
20260502034523 10 3 3.2 6.4 0.00 0.00 0.00 60 1023.5
20260502033531 10 145 3.2 6.4 0.00 0.00 0.00 59 1023.4
20260502032523 10 107 3.2 8.0 0.00 0.00 0.00 58 1023.5
20260502031530 11 176 1.6 4.8 0.00 0.00 0.00 57 1023.4
20260502030523 11 150 1.6 6.4 0.00 0.00 0.00 56 1023.4
20260502025523 11 172 1.6 4.8 0.00 0.00 0.00 55 1023.4
20260502024523 11 322 3.2 6.4 0.00 0.00 0.00 54 1023.4
20260502023532 12 290 1.6 6.4 0.00 0.00 0.00 53 1023.4
20260502022523 12 208 1.6 6.4 0.00 0.00 0.00 52 1023.5